Content
SEND FEEDBACK

Daily
Averages
Monthly
Summary
United States of America

UMATAC, GUAM


Home > North America > United States > Guam
Elevation: 58 meters     Latitude: 13 17N     Longitude: 144 40E

WEATHER
 
SELECT A DAY
Number of Records: 351,678;   Date Range: 1/1/95 - 10/21/14
 
SHARE

PRINT THIS DATA

[ ← Previous Day ]
WEATHER ALMANAC - 14 MAY, 2013
[ Next Day → ]
[ °F ]   °C
Weather ElementAverageHighLow
Temperature27.9 °C30 °C (11:56 am)26 °C (2:14 am)
Dewpoint23.8 °C25 °C (12:34 pm)22.7 °C (4:55 am)
Humidity78.1 %87 % (11:55 pm)70 % (11:56 am)
Barometer1010.2 hPa1011.9 hPa (7:55 am)1008.8 hPa (4:29 pm)
Wind Speed18.2 km/h22.2 km/h (4:49 am)
Wind Gust31.5 km/h (2:07 pm)
Weather ElementAverage
Visibility16.1 km
Wind DirectionESE (98.3 °)

Weather ElementTotal
Precipitation0.25 mm
Cooling Degree Days9.7 (Base 18.3)
Growing Degree Days18 (Base 10)
Averaged from 69 records on 14 May, 2013
WEATHER CONDITIONS BREAKOUT
WIND DIRECTION BREAKOUT
WEATHER BY HOUR - 14 MAY, 2013
[ °F ]   °C
Local TimeTemperatureDewpointHumidityBarometerVisibilityWind DirectionWind SpeedGust SpeedPrecipitationEventsConditions
1:55 AM26.3 °C23.5 °C84 %1010.5 hPa16.1 kmESE (110°)14.8 km/hScattered Clouds
2:14 AM26 °C23 °C83 %1010.5 hPa16.1 kmESE (120°)14.8 km/hMostly Cloudy
2:33 AM26 °C23 °C83 %1010.2 hPa16.1 kmESE (110°)20.4 km/hScattered Clouds
2:55 AM26.2 °C23.2 °C83 %1010.2 hPa16.1 kmESE (120°)18.5 km/h0.25 mmPartly Cloudy
3:55 AM26.2 °C22.9 °C82 %1010.5 hPa16.1 kmESE (120°)18.5 km/hPartly Cloudy
4:33 AM26 °C23 °C83 %1010.5 hPa16.1 kmESE (120°)14.8 km/hMostly Cloudy
4:49 AM26 °C23 °C83 %1010.5 hPa16.1 kmESE (120°)22.2 km/hScattered Clouds
4:53 AM26 °C23 °C83 %1010.5 hPa16.1 kmSE (130°)18.5 km/hMostly Cloudy
4:55 AM26.2 °C22.7 °C81 %1010.5 hPa16.1 kmESE (120°)18.5 km/hMostly Cloudy
5:18 AM26 °C23 °C83 %1010.8 hPa16.1 kmESE (120°)16.7 km/hScattered Clouds
6:55 AM27 °C22.8 °C78 %1011.5 hPa16.1 kmESE (120°)16.7 km/hPartly Cloudy
7:55 AM28 °C23.2 °C75 %1011.9 hPa16.1 kmEast (90°)16.7 km/hClear
8:55 AM28.6 °C23.8 °C75 %1011.9 hPa16.1 kmEast (90°)16.7 km/hPartly Cloudy
9:55 AM28.9 °C23.8 °C74 %1011.5 hPa16.1 kmEast (100°)14.8 km/hClear
10:55 AM29.2 °C24.1 °C74 %1011.2 hPa16.1 kmEast (100°)18.5 km/hPartly Cloudy
11:26 AM29 °C24 °C74 %1010.8 hPa16.1 kmEast (100°)14.8 km/hMostly Cloudy
11:55 AM29.6 °C24 °C72 %1010.5 hPa16.1 kmEast (100°)18.5 km/hMostly Cloudy
11:56 AM30 °C24 °C70 %1010.5 hPa16.1 kmESE (110°)20.4 km/hScattered Clouds
12:04 PM30 °C24 °C70 %1010.5 hPa16.1 kmEast (100°)18.5 km/hMostly Cloudy
12:06 PM30 °C24 °C70 %1010.5 hPa16.1 kmEast (90°)22.2 km/hMostly Cloudy
12:17 PM29 °C24 °C74 %1010.5 hPa16.1 kmESE (110°)22.2 km/hMostly Cloudy
12:27 PM29 °C24 °C74 %1010.5 hPa16.1 kmEast (90°)20.4 km/hMostly Cloudy
12:34 PM29 °C25 °C79 %1010.5 hPa16.1 kmEast (90°)20.4 km/hMostly Cloudy
12:35 PM29 °C24 °C74 %1010.5 hPa16.1 kmEast (100°)20.4 km/hMostly Cloudy
12:36 PM29 °C24 °C74 %1010.5 hPa16.1 kmEast (100°)20.4 km/hMostly Cloudy
12:44 PM29 °C24 °C74 %1010.5 hPa16.1 kmEast (100°)22.2 km/hMostly Cloudy
12:55 PM29.9 °C23.9 °C70 %1010.2 hPa16.1 kmEast (100°)22.2 km/hScattered Clouds
1:15 PM29 °C24 °C74 %1010.2 hPa16.1 kmESE (110°)20.4 km/hMostly Cloudy
1:33 PM29 °C24 °C74 %1009.8 hPa16.1 kmEast (100°)20.4 km/hScattered Clouds
1:55 PM29.8 °C24.4 °C73 %1009.5 hPa16.1 kmEast (80°)20.4 km/hPartly Cloudy
2:07 PM30 °C24 °C70 %1009.5 hPa16.1 kmEast (90°)22.2 km/h31.5 km/hMostly Cloudy
2:11 PM29 °C24 °C74 %1009.5 hPa16.1 kmEast (100°)18.5 km/h31.5 km/hScattered Clouds
2:41 PM29 °C24 °C74 %1009.5 hPa16.1 kmEast (100°)22.2 km/h31.5 km/hMostly Cloudy
2:55 PM28.7 °C23.5 °C73 %1009.5 hPa16.1 kmEast (100°)18.5 km/hMostly Cloudy
2:59 PM29 °C24 °C74 %1009.5 hPa16.1 kmEast (90°)18.5 km/hScattered Clouds
3:03 PM29 °C24 °C74 %1009.5 hPa16.1 kmEast (100°)16.7 km/hMostly Cloudy
3:07 PM29 °C24 °C74 %1009.5 hPa16.1 kmESE (110°)20.4 km/hScattered Clouds
3:55 PM29.1 °C23.5 °C72 %1009.1 hPa16.1 kmEast (80°)18.5 km/hPartly Cloudy
4:12 PM29 °C24 °C74 %1009.1 hPa16.1 kmEast (90°)18.5 km/hRainLight Rain
4:29 PM29 °C23 °C70 %1008.8 hPa16.1 kmEast (100°)16.7 km/hPartly Cloudy
4:55 PM28.7 °C23.7 °C74 %1009.1 hPa16.1 kmEast (90°)16.7 km/h0 mmPartly Cloudy
5:15 PM29 °C24 °C74 %1009.1 hPa16.1 kmEast (80°)20.4 km/hMostly Cloudy
5:17 PM28 °C24 °C79 %1009.1 hPa16.1 kmEast (100°)16.7 km/hScattered Clouds
5:29 PM28 °C24 °C79 %1009.1 hPa16.1 kmEast (90°)14.8 km/hMostly Cloudy
5:31 PM28 °C24 °C79 %1009.1 hPa16.1 kmEast (100°)16.7 km/hScattered Clouds
5:34 PM28 °C24 °C79 %1009.1 hPa16.1 kmEast (100°)14.8 km/hMostly Cloudy
5:38 PM28 °C24 °C79 %1009.1 hPa16.1 kmEast (90°)14.8 km/hScattered Clouds
5:43 PM28 °C24 °C79 %1009.5 hPa16.1 kmEast (100°)16.7 km/hMostly Cloudy
5:44 PM28 °C24 °C79 %1009.5 hPa16.1 kmEast (80°)16.7 km/hScattered Clouds
5:50 PM28 °C24 °C79 %1009.5 hPa16.1 kmEast (90°)16.7 km/hMostly Cloudy
5:55 PM27.7 °C23.4 °C77 %1009.5 hPa16.1 kmEast (90°)20.4 km/hMostly Cloudy
6:16 PM27 °C23 °C79 %1009.5 hPa16.1 kmEast (90°)16.7 km/hScattered Clouds
6:52 PM27 °C24 °C84 %1009.8 hPa16.1 kmEast (80°)14.8 km/hMostly Cloudy
6:55 PM27 °C23.6 °C82 %1009.8 hPa16.1 kmEast (80°)13 km/hMostly Cloudy
7:20 PM27 °C23 °C79 %1010.2 hPa16.1 kmEast (100°)14.8 km/hScattered Clouds
7:22 PM27 °C24 °C84 %1010.2 hPa16.1 kmEast (100°)14.8 km/hMostly Cloudy
7:25 PM27 °C24 °C84 %1010.2 hPa16.1 kmEast (90°)14.8 km/hScattered Clouds
7:55 PM26.9 °C23.7 °C83 %1010.5 hPa16.1 kmEast (90°)18.5 km/hMostly Cloudy
8:09 PM27 °C24 °C84 %1010.5 hPa16.1 kmEast (100°)16.7 km/hScattered Clouds
8:21 PM27 °C24 °C84 %1010.8 hPa16.1 kmEast (90°)14.8 km/hMostly Cloudy
8:24 PM27 °C24 °C84 %1010.8 hPa16.1 kmEast (90°)18.5 km/hScattered Clouds
8:43 PM27 °C24 °C84 %1011.2 hPa16.1 kmEast (90°)18.5 km/hMostly Cloudy
8:48 PM27 °C24 °C84 %1011.2 hPa16.1 kmEast (90°)18.5 km/hScattered Clouds
8:49 PM27 °C24 °C84 %1011.2 hPa16.1 kmEast (90°)22.2 km/hMostly Cloudy
8:53 PM27 °C24 °C84 %1011.2 hPa16.1 kmEast (90°)22.2 km/hScattered Clouds
8:55 PM26.9 °C23.7 °C83 %1011.2 hPa16.1 kmEast (80°)20.4 km/hScattered Clouds
9:55 PM26.8 °C24 °C85 %1011.5 hPa16.1 kmEast (100°)18.5 km/hScattered Clouds
10:55 PM26.8 °C23.9 °C84 %1011.9 hPa16.1 kmEast (90°)18.5 km/hPartly Cloudy
11:55 PM26.6 °C24.3 °C87 %1011.5 hPa16.1 kmEast (100°)18.5 km/hPartly Cloudy
Hourly data recorded from PGUA, located 0 kilometers away from Umatac, Guam







STORIES FROM OUR PARTNERS